FTV 3502

导读

FTV 3502是美国于1962年8月23日08:00发射的一颗早期人造卫星。作为美国航天事业起步阶段的航天器,它诞生于人类航天探索初期,印证了冷战背景下美国抢占太空优势的发展节奏。它的发射为美国后续卫星技术积累了宝贵经验,推动了早期航天观测、空间技术验证等领域发展,在世界航天发展史上留下了早期探索的印记。

Basic Information
目录编号:
369
目录名称:
FTV 3502
国际标识:
1962-039A
轨道中心:
EARTH
卫星名称:
FTV 3502
卫星全名:
--
卫星状态:
在轨 (已飞行23389 天)
发射日期:
1962-08-23 UTC
国别 :
美国 (US)
星等 :
--
Orbit Information
数据来源 国际轨道数据
星历时间: 2026-09-05T14:32:50+0800
7小时前
查看轨道信息
半长轴: 6968.369km
偏心率: 0.0077635
轨道倾角: 98.456°
近地点辐角 226.234°
升交点赤经 338.518°
平近点角 133.243°
近地点: 536.133km
远地点: 644.331km
周期: 96.484分钟
每日圈数: 14.924717
Detailed Information
使用方式:
暂无
2D Orbit Map
3D Orbit Map
Orbit Altitude Analysis Chart
Orbit Inclination Analysis Chart
Orbit Comprehensive Analysis Chart
View Comprehensive Chart
Conjunction Data List
Event ID Objects TCA Miss Dist (km) Collision Risk Probability Collision Risk Index (CRI) Action
CDM_260906-124800-036905-578526
2026-09-06T
12:48:02+0000
1.420 km
极远距离
7.630087E-6 低风险 0.53
CDM_260907-043800-036905-392525
2026-09-07T
04:38:17+0000
1.979 km
极远距离
2.734934E-6 低风险 0.44
CDM_260908-044600-036905-390621
2026-09-08T
04:46:03+0000
2.443 km
极远距离
1.732354E-6 低风险 0.4
CDM_260905-091100-036905-393222
2026-09-05T
09:11:22+0000
2.614 km
极远距离
1.535408E-6 低风险 0.39
CDM_260906-155500-036906-506221
2026-09-06T
15:55:26+0000
2.612 km
极远距离
6.04123E-7 极低风险 0.31